Regional Weather Roundup
Issued by NWS

Home | Current Version | Previous Version | Graphics & Text | Print | Product List | Glossary On
Versions: 1 2 3 4 5 6 7 8 9 10 11 12 13 14 15 16 17 18 19 20 21 22 23 24 25 26 27 28 29 30 31 32 33 34 35 36 37 38 39 40 41 42 43 44 45 46 47 48 49 50
000
ASUS43 KIND 201259
RWRIN

WEATHER ROUNDUP FOR INDIANA
NATIONAL WEATHER SERVICE INDIANAPOLIS IN
800 AM EST TUE FEB 20 2018

NOTE: "FAIR" INDICATES FEW OR NO CLOUDS BELOW 12,000 FEET WITH NO
SIGNIFICANT WEATHER AND/OR OBSTRUCTIONS TO VISIBILITY.

* - STATION DOES NOT REPORT WEATHER SUCH AS PRECIPITATION OR FOG.

+ - STATION NOT QUALITY CONTROLLED BY THE NATIONAL WEATHER SERVICE.
    USE DATA WITH CAUTION...ESPECIALLY DEWPOINT AND RELATIVE
    HUMIDITY OBSERVATIONS.

INZ001>003-010>013-019-020-201400-
NORTHWEST INDIANA

CITY           SKY/WX    TMP DP  RH WIND       PRES   REMARKS
GARY /AIRPORT/ LGT RAIN  63  61  94 S15G32    29.85F
MICHIGAN CITY+ LGT RAIN  61  61 100 S16G28    29.88R
MONTICELLO +   CLOUDY    64  60  88 SW16G22   29.93R
RENSSELAER +   LGT RAIN  61  55  82 SW17G24   29.90F

$$

LMZ046-743>745-201400-
SOUTHERN LAKE MICHIGAN

STATION/POSITION TIME  TEMP    WIND        PRES    WAVE
                       AIR SEA DIR/SP/G            HT
                 (UTC) (F)     (DEG/KT/KT) (MB)    (FT)
BURNS HARBOR     1205   60     200/ 22     1010.8
MICHIGAN CITY    1230   60     190/ 22/ 28   N/A

$$

INZ004-005-014>016-021>024-201400-
NORTH CENTRAL INDIANA

CITY           SKY/WX    TMP DP  RH WIND       PRES   REMARKS
ELKHART        HVY RAIN  57  57 100 S9        29.94R
GOSHEN         LGT RAIN  58  57  97 S10       29.93F
PERU/GRISSOM   CLOUDY    63  63 100 SW18G25   29.94S
SOUTH BEND     RAIN      60  58  92 S18       29.91S FOG
WARSAW +       LGT RAIN  57  57 100 S5        29.95R

$$

INZ006>009-017-018-025>027-201400-
NORTHEAST INDIANA

CITY           SKY/WX    TMP DP  RH WIND       PRES   REMARKS
AUBURN +       MOCLDY    61  55  82 S12G17    29.97R
FORT WAYNE     MOCLDY    62  57  83 S17       29.97R
KENDALLVILLE + HVY RAIN  59  57  93 SW9       29.97R

$$

INZ028-029-035-036-043>045-051>053-201400-
WEST CENTRAL INDIANA

CITY           SKY/WX    TMP DP  RH WIND       PRES   REMARKS
CRAWFORDSVL +  CLOUDY    62  59  90 S18G29    29.97S
GREENCASTLE +  FAIR      64  55  72 S13G21    30.00R
LAFAYETTE      CLOUDY    65  59  81 SW12G25   29.93R
TERRE HAUTE    CLOUDY    65  59  81 S20G30    29.99R

$$

INZ030>032-037>040-046>048-054>057-064-065-201400-
CENTRAL INDIANA

CITY           SKY/WX    TMP DP  RH WIND       PRES   REMARKS
COLUMBUS       PTCLDY    64  55  72 S18G25    30.07R
GREENWOOD *+   MOCLDY    62 -45   1 S16G23    30.03S
INDIANAPOLIS   MOCLDY    66  58  75 S20G33    30.00S
-EAGLE CREEK   MOCLDY    67  57  70 S22G32    29.99R
KOKOMO +       CLOUDY    60  57  89 S16       29.97S
MT COMFORT *+  CLOUDY    61  59  94 S14G21    30.02S
SHELBYVILLE    FAIR      63  55  75 S17       30.04R

$$

INZ033-034-041-042-049-050-058-059-201400-
EAST CENTRAL INDIANA

CITY           SKY/WX    TMP DP  RH WIND       PRES   REMARKS
MUNCIE         FAIR      63  56  78 S16G25    30.01S
RICHMOND +     FAIR      55  55 100 S13       30.09R

$$

INZ060-061-067>069-081>083-085>088-201400-
SOUTHWEST INDIANA

CITY           SKY/WX    TMP DP  RH WIND       PRES   REMARKS
EVANSVILLE     FAIR      67  58  72 S17G24    30.07S
HUNTINGBURG +  MOCLDY    66  58  75 S20       30.10R

$$

INZ062-063-066-070>080-084-089>092-201400-
SOUTH CENTRAL AND SOUTHEAST INDIANA

CITY           SKY/WX    TMP DP  RH WIND       PRES   REMARKS
BLOOMINGTON    MOCLDY    67  58  72 S21G28    30.04R
FRENCH LICK *+ MOCLDY    64  54  68 S13G24    30.10R
SEYMOUR +      FAIR      66  55  68 S20G25    30.09R

$$




USA.gov is the U.S. government's official web portal to all federal, state and local government web resources and services.